| time (UTC) | temp C | wind direction | speed KPH | gust KPH | rain 1hr cm | rain 24hr cm | rain mn cm | humidity % | barometer mb |
| 20260503200020 | 8 | 328 | 16.1 | 30.6 | 0.00 | 0.28 | 0.03 | 82 | 1006.3 |
| 20260503194518 | 8 | 299 | 16.1 | 27.4 | 0.00 | 0.28 | 0.03 | 86 | 1006.2 |
| 20260503193034 | 7 | 297 | 16.1 | 33.8 | 0.00 | 0.28 | 0.03 | 88 | 1006.3 |
| 20260503191516 | 7 | 297 | 17.7 | 29.0 | 0.00 | 0.28 | 0.03 | 88 | 1006.1 |
| 20260503190015 | 7 | 324 | 25.7 | 37.0 | 0.00 | 0.28 | 0.03 | 89 | 1006.1 |
| 20260503184521 | 6 | 329 | 24.1 | 41.8 | 0.00 | 0.28 | 0.03 | 91 | 1006.2 |
| 20260503183013 | 6 | 314 | 29.0 | 46.7 | 0.00 | 0.28 | 0.03 | 91 | 1006.1 |
| 20260503181511 | 6 | 304 | 24.1 | 43.5 | 0.00 | 0.28 | 0.03 | 91 | 1005.8 |
| 20260503180017 | 6 | 299 | 19.3 | 32.2 | 0.00 | 0.28 | 0.03 | 91 | 1005.6 |
| 20260503174510 | 7 | 305 | 22.5 | 37.0 | 0.00 | 0.28 | 0.03 | 90 | 1005.5 |
| 20260503173020 | 7 | 341 | 19.3 | 33.8 | 0.00 | 0.28 | 0.03 | 86 | 1005.2 |
| 20260503171520 | 9 | 295 | 20.9 | 38.6 | 0.00 | 0.28 | 0.03 | 78 | 1005.1 |
| 20260503150104 | 8 | 314 | 25.7 | 40.2 | 0.00 | 0.28 | 0.03 | 82 | 1004.5 |
| 20260503081517 | 7 | 332 | 14.5 | 22.5 | 0.00 | 0.25 | 0.00 | 96 | 1006.5 |
| 20260503071511 | 8 | 318 | 19.3 | 27.4 | 0.00 | 0.25 | 0.00 | 98 | 1006.8 |
| 20260503060121 | 8 | 242 | 1.6 | 4.8 | 0.00 | 0.25 | 0.00 | 98 | 1007.2 |
| 20260503054600 | 8 | 242 | 3.2 | 8.0 | 0.00 | 0.25 | 0.00 | 98 | 1007.8 |
| 20260503053053 | 8 | 235 | 4.8 | 9.7 | 0.00 | 0.25 | 0.00 | 98 | 1007.9 |
| 20260503051552 | 8 | 218 | 6.4 | 8.0 | 0.00 | 0.25 | 0.00 | 98 | 1008.1 |
| 20260503050047 | 8 | 191 | 3.2 | 6.4 | 0.00 | 0.25 | 0.00 | 98 | 1008.5 |
| 20260503044545 | 8 | 170 | 4.8 | 11.3 | 0.00 | 0.25 | 0.00 | 97 | 1008.9 |
| 20260503043044 | 8 | 192 | 4.8 | 11.3 | 0.00 | 0.25 | 0.00 | 97 | 1009.5 |
| 20260503041540 | 8 | 225 | 8.0 | 12.9 | 0.00 | 0.25 | 0.00 | 97 | 1009.7 |
| 20260503040040 | 8 | 202 | 6.4 | 12.9 | 0.00 | 0.25 | 0.25 | 98 | 1009.8 |
| 20260503034535 | 8 | 202 | 8.0 | 12.9 | 0.00 | 0.25 | 0.25 | 97 | 1010.0 |
| 20260503033038 | 8 | 187 | 6.4 | 12.9 | 0.00 | 0.25 | 0.25 | 97 | 1010.1 |
| 20260503031531 | 8 | 205 | 6.4 | 12.9 | 0.00 | 0.25 | 0.25 | 97 | 1010.2 |
| 20260503030029 | 8 | 195 | 6.4 | 16.1 | 0.00 | 0.25 | 0.25 | 97 | 1010.3 |
| 20260503024527 | 8 | 226 | 9.7 | 14.5 | 0.03 | 0.25 | 0.25 | 97 | 1010.4 |
| 20260503023126 | 8 | 194 | 9.7 | 16.1 | 0.03 | 0.25 | 0.25 | 97 | 1010.6 |
| 20260503021524 | 8 | 223 | 11.3 | 19.3 | 0.05 | 0.25 | 0.25 | 97 | 1010.9 |
| 20260503020022 | 8 | 182 | 12.9 | 24.1 | 0.05 | 0.25 | 0.25 | 97 | 1011.1 |
| 20260503014521 | 8 | 201 | 11.3 | 19.3 | 0.05 | 0.23 | 0.23 | 97 | 1011.3 |
| 20260503013021 | 8 | 206 | 11.3 | 19.3 | 0.05 | 0.23 | 0.23 | 97 | 1011.4 |
| 20260503011520 | 8 | 181 | 11.3 | 19.3 | 0.03 | 0.20 | 0.20 | 97 | 1011.4 |
| 20260503010019 | 8 | 171 | 14.5 | 24.1 | 0.05 | 0.20 | 0.20 | 97 | 1011.3 |
| 20260503004519 | 8 | 177 | 12.9 | 20.9 | 0.05 | 0.18 | 0.18 | 96 | 1011.4 |
| 20260503003018 | 8 | 206 | 12.9 | 22.5 | 0.05 | 0.18 | 0.18 | 96 | 1011.3 |
| 20260503001518 | 8 | 197 | 14.5 | 22.5 | 0.08 | 0.18 | 0.18 | 96 | 1011.4 |
| 20260503000018 | 8 | 183 | 9.7 | 19.3 | 0.05 | 0.15 | 0.15 | 96 | 1011.4 |
| 20260502234516 | 8 | 179 | 11.3 | 16.1 | 0.05 | 0.13 | 0.13 | 96 | 1011.3 |
| 20260502233018 | 8 | 176 | 11.3 | 17.7 | 0.05 | 0.13 | 0.13 | 95 | 1011.4 |
| 20260502231516 | 8 | 179 | 4.8 | 14.5 | 0.05 | 0.10 | 0.10 | 95 | 1011.4 |
| 20260502230018 | 8 | 189 | 6.4 | 14.5 | 0.05 | 0.10 | 0.10 | 95 | 1011.4 |
| 20260502224513 | 8 | 187 | 9.7 | 14.5 | 0.03 | 0.08 | 0.08 | 95 | 1011.3 |
| 20260502223013 | 8 | 166 | 6.4 | 12.9 | 0.08 | 0.08 | 0.08 | 95 | 1011.2 |
| 20260502221512 | 8 | 160 | 4.8 | 11.3 | 0.05 | 0.05 | 0.05 | 94 | 1011.3 |
| 20260502220011 | 8 | 156 | 6.4 | 12.9 | 0.05 | 0.05 | 0.05 | 94 | 1011.2 |
| 20260502214510 | 8 | 160 | 8.0 | 14.5 | 0.05 | 0.05 | 0.05 | 94 | 1011.3 |
| 20260502213008 | 8 | 174 | 11.3 | 16.1 | 0.00 | 0.00 | 0.00 | 93 | 1011.5 |
| 20260502211521 | 8 | 166 | 8.0 | 16.1 | 0.00 | 0.00 | 0.00 | 92 | 1011.5 |
| 20260502210005 | 8 | 154 | 6.4 | 12.9 | 0.00 | 0.00 | 0.00 | 91 | 1011.8 |
| 20260502204504 | 8 | 154 | 4.8 | 11.3 | 0.00 | 0.00 | 0.00 | 91 | 1011.8 |
| 20260502203005 | 8 | 156 | 8.0 | 14.5 | 0.00 | 0.00 | 0.00 | 90 | 1011.9 |
| 20260502201501 | 8 | 156 | 9.7 | 16.1 | 0.00 | 0.00 | 0.00 | 90 | 1012.2 |